This is the latest recevied weather packets stored in our database for station/object OH6GKW. If no packets are shown the sender has not sent any weather packets the latest 10 day(s).
| Time | Temp. | Humidity | Pressure | Rain* | Wind** | Luminosity | Snow |
|---|---|---|---|---|---|---|---|
| 1778173739 | 5° C | 74% | 1015.1 hPa | 0 mm | - | 48 W/m² | - |
| 1778173415 | 5° C | 74% | 1015.1 hPa | 0 mm | - | 56 W/m² | - |
| 1778173124 | 5.56° C | 74% | 1015 hPa | 0 mm | - | 69 W/m² | - |
| 1778172817 | 5.56° C | 73% | 1015 hPa | 0 mm | - | 107 W/m² | - |
| 1778172509 | 5.56° C | 73% | 1015 hPa | 0 mm | - | 143 W/m² | - |
| 1778172224 | 6.11° C | 73% | 1014.8 hPa | 0 mm | - | 169 W/m² | - |
| 1778171917 | 6.11° C | 73% | 1014.8 hPa | 0 mm | - | 218 W/m² | - |
| 1778171612 | 6.11° C | 72% | 1014.8 hPa | 0 mm | - | 230 W/m² | - |
| 1778171332 | 6.11° C | 72% | 1014.6 hPa | 0 mm | - | 241 W/m² | - |
| 1778171024 | 6.11° C | 71% | 1014.6 hPa | 0 mm | - | 238 W/m² | - |
| 1778170713 | 6.11° C | 70% | 1014.6 hPa | 0 mm | - | 239 W/m² | - |
| 1778170425 | 6.67° C | 67% | 1014.5 hPa | 0 mm | - | 213 W/m² | - |
| 1778170117 | 6.67° C | 65% | 1014.5 hPa | 0 mm | - | 229 W/m² | - |
| 1778169815 | 6.67° C | 66% | 1014.5 hPa | 0 mm | - | 334 W/m² | - |
| 1778169508 | 6.11° C | 67% | 1014.2 hPa | 0 mm | - | 456 W/m² | - |
| 1778169222 | 6.67° C | 66% | 1014.2 hPa | 0 mm | - | 225 W/m² | - |
| 1778168914 | 7.22° C | 64% | 1014.2 hPa | 0 mm | - | 134 W/m² | - |
| 1778168637 | 7.22° C | 63% | 1014.1 hPa | 0 mm | - | 165 W/m² | - |
| 1778168328 | 7.22° C | 63% | 1014.1 hPa | 0 mm | - | 433 W/m² | - |
| 1778168024 | 6.67° C | 63% | 1014.1 hPa | 0 mm | - | 470 W/m² | - |
| 1778167713 | 7.22° C | 63% | 1013.9 hPa | 0 mm | - | 176 W/m² | - |
| 1778167426 | 7.22° C | 63% | 1013.9 hPa | 0 mm | - | 128 W/m² | - |
| 1778167118 | 6.67° C | 64% | 1013.9 hPa | 0 mm | - | 195 W/m² | - |
| 1778166814 | 6.67° C | 63% | 1013.8 hPa | 0 mm | - | 190 W/m² | - |
| 1778166521 | 6.67° C | 62% | 1013.8 hPa | 0 mm | - | 141 W/m² | - |
* Rain since midnight (hover to see other rain measurements)
** Current wind speed in m/s (hover to see current wind gust speed)